Theta_e
338 344 348 348 348 348 346 344 343 343 341 340 339 339 338 337 338 341 341 341 339 339 339 337 336 336 335 334 334 335 334 335 335 335 335 336 337 336 337 335 337 335 337
341 344 347 348 347 347 345 343 344 343 340 338 338 339 338 338 338 337 339 340 339 338 339 336 334 334 333 333 334 334 334 332 332 333 335 336 336 336 335 336 337 338 339
340 343 347 347 348 347 347 345 344 342 339 338 337 338 338 337 337 337 337 339 338 341 340 336 334 333 333 334 333 333 333 333 332 331 335 334 335 338 338 338 337 337 337
341 343 345 345 347 346 345 345 344 342 340 337 337 339 339 337 337 336 336 338 338 338 336 335 334 334 334 333 333 333 331 333 332 335 334 334 335 338 339 337 336 334 332
342 344 346 345 346 345 345 345 344 342 340 336 336 337 338 336 337 336 336 338 338 338 335 334 334 334 333 333 334 334 333 332 331 334 336 337 337 337 337 335 331 329 328
342 344 344 345 346 345 345 344 342 341 338 337 336 337 335 336 335 334 336 337 336 336 335 334 333 333 333 332 332 331 331 330 333 333 336 335 335 335 334 331 328 327 325
341 343 344 344 345 346 344 344 344 341 338 337 336 336 334 335 333 333 335 336 334 334 335 334 333 332 331 331 331 330 328 328 331 333 334 332 332 333 332 329 326 325 324
338 340 342 338 341 344 345 343 343 341 340 338 336 336 335 335 333 332 332 334 332 334 334 333 333 331 330 330 330 329 328 328 329 333 332 331 332 329 330 326 325 323 323
336 337 339 342 340 337 339 340 340 340 339 338 338 336 335 335 333 332 332 333 333 333 333 332 332 331 330 329 328 327 327 328 330 331 328 328 330 329 328 325 323 323 322
335 336 337 339 340 341 341 333 335 336 336 336 334 331 330 329 329 331 331 333 333 332 332 331 331 331 330 328 327 325 325 327 329 329 327 327 329 328 325 324 323 321 321
333 334 336 338 339 340 339 335 331 331 332 331 329 326 326 331 331 330 328 331 332 332 330 329 329 329 329 327 325 323 325 325 326 327 326 328 327 324 323 322 321 320 319
329 332 334 336 337 339 338 339 337 335 334 332 332 331 332 331 331 329 326 327 329 329 330 329 327 325 325 329 327 323 328 325 324 325 324 326 324 323 322 320 319 319 318
330 332 334 335 337 337 337 337 337 335 334 332 332 332 332 331 331 329 329 327 328 322 328 328 327 329 328 330 329 329 327 326 325 325 322 323 323 322 320 318 318 317 317
330 331 333 335 335 337 337 336 336 334 333 331 331 331 330 329 329 328 326 326 327 328 328 328 329 329 329 328 329 328 327 324 323 322 320 319 321 321 320 317 317 316 315
331 331 332 334 334 335 336 336 335 334 332 331 330 330 329 327 327 326 326 326 325 327 328 328 328 328 328 327 328 327 326 324 321 317 319 318 323 320 318 316 316 315 314
332 332 332 333 334 334 334 335 334 334 333 331 329 329 329 329 327 325 325 325 325 327 328 329 328 328 328 328 327 327 327 323 320 316 317 318 319 319 316 315 315 315 315
332 333 331 331 334 333 333 334 334 334 333 331 329 328 329 328 327 325 324 324 325 327 329 329 329 329 328 326 325 326 326 322 319 314 314 316 315 316 317 315 314 314 315
333 332 333 331 331 333 333 333 333 334 333 331 330 329 329 329 328 325 323 324 326 328 328 328 328 327 327 324 324 325 324 317 318 313 312 315 316 317 314 314 313 313 314
332 333 332 333 331 332 334 333 333 333 333 332 331 329 329 330 329 327 326 326 327 327 327 328 327 327 325 325 322 322 322 317 317 315 315 315 315 314 316 313 312 311 312
332 333 333 333 333 333 333 333 332 331 331 332 331 330 329 329 329 329 328 327 327 327 326 327 326 327 326 324 317 315 318 318 318 317 316 315 314 313 313 312 311 307 308
330 331 332 332 333 332 331 329 328 326 329 330 330 330 329 329 328 329 328 328 328 326 326 327 327 325 324 323 314 313 311 313 317 316 316 315 314 311 310 309 309 307 306
327 329 331 332 333 332 331 330 330 329 331 331 331 330 330 329 329 328 329 328 328 326 326 326 325 323 323 321 314 312 309 310 313 314 315 313 313 312 308 307 306 304 305
324 327 329 330 332 333 332 331 330 330 330 328 329 328 328 328 328 329 328 328 328 327 325 325 325 324 320 322 320 315 306 306 313 314 310 311 311 311 309 306 304 303 301
324 327 329 330 331 332 333 330 328 326 324 328 329 329 329 328 327 327 327 327 327 327 325 326 325 325 324 319 319 317 316 316 310 310 314 310 309 308 309 307 304 302 300
323 326 328 329 330 331 332 332 330 328 330 330 330 330 329 329 328 327 327 327 326 327 326 325 325 324 325 323 321 320 319 318 314 310 308 314 310 308 308 307 305 299 296
318 323 326 326 327 329 330 331 330 328 328 329 329 328 328 328 328 327 327 327 326 326 325 325 326 325 324 324 323 323 319 315 314 312 308 310 311 312 303 300 300 295 291
Wind_Speed
8 8 7 11 12 14 14 13 13 13 13 13 13 12 12 12 13 13 13 15 14 13 15 18 17 16 17 17 16 17 17 17 17 16 16 16 15 15 13 10 7 11 11
11 9 7 10 13 14 14 13 12 11 13 13 13 13 12 13 12 13 13 15 14 13 15 17 17 16 16 16 17 17 16 16 15 14 11 12 12 13 11 12 12 15 19
11 9 11 9 13 13 13 13 11 12 12 12 12 14 12 12 13 12 12 14 12 14 17 17 16 15 15 16 16 15 14 12 10 7 6 7 11 11 13 17 19 20 20
11 10 11 9 13 13 12 12 12 11 11 12 13 12 13 12 14 13 11 13 13 14 16 16 15 15 15 15 15 14 13 13 12 11 6 4 7 15 18 18 19 19 17
10 10 11 9 12 13 12 12 11 11 11 11 12 13 12 12 14 13 10 13 13 14 15 15 15 15 14 14 13 12 11 11 8 6 9 12 11 13 17 17 16 18 17
10 10 11 10 11 12 11 13 12 13 12 12 12 13 12 12 13 11 11 13 13 13 14 14 14 14 13 12 12 11 11 10 6 9 10 10 12 16 16 16 16 16 14
10 10 11 9 9 9 11 13 13 13 12 11 11 12 12 11 11 11 11 13 13 12 13 13 13 13 12 12 12 12 10 8 7 7 9 10 12 15 15 14 14 13 13
10 8 10 8 8 8 10 13 13 12 12 11 11 12 12 10 11 11 11 11 12 12 12 11 11 10 10 11 11 11 9 6 5 9 9 9 11 12 13 13 13 12 12
9 8 9 10 10 7 8 10 11 11 10 11 9 11 11 9 9 9 10 10 11 12 11 11 9 8 8 9 10 9 8 7 7 7 6 6 10 11 11 11 11 11 11
9 9 9 9 11 12 11 9 9 10 10 9 7 8 8 8 8 7 6 8 10 10 10 9 8 8 8 9 9 8 4 2 7 6 5 6 9 9 8 10 10 10 10
8 8 9 10 10 10 11 10 10 10 9 9 9 9 9 7 8 9 7 8 10 10 9 7 7 7 7 8 7 4 3 4 4 5 4 7 9 7 9 8 8 8 9
11 10 9 10 10 10 8 10 9 9 8 8 9 11 7 7 6 5 6 6 6 6 6 6 6 5 5 4 4 4 2 4 4 3 4 9 5 6 8 5 6 7 7
13 10 11 10 10 11 8 7 5 5 5 6 9 9 7 6 7 6 5 6 6 5 4 5 6 4 3 2 3 2 3 2 1 2 4 3 5 4 6 3 4 5 6
15 14 14 13 11 11 7 7 7 6 6 5 7 9 7 5 6 6 5 5 5 4 4 4 3 3 3 3 3 2 3 1 1 1 3 2 4 1 5 2 2 3 3
15 15 14 14 13 11 11 8 7 7 6 6 7 8 7 6 6 6 6 5 5 5 4 4 4 4 4 4 4 5 4 2 2 1 1 4 4 3 3 1 0 1 1
16 16 15 15 14 13 12 11 9 8 8 7 7 8 9 6 6 6 6 6 5 5 4 4 4 5 4 4 5 5 4 3 3 2 1 3 6 5 1 1 2 3 3
16 15 16 15 15 14 14 12 10 9 8 8 8 10 11 9 8 8 6 6 5 5 5 5 5 4 4 4 5 4 4 3 3 3 3 3 5 9 9 6 5 5 5
16 17 16 13 14 15 14 11 9 9 9 8 8 8 12 11 10 8 6 6 6 5 5 5 5 5 5 4 4 4 3 5 7 8 7 7 6 6 7 10 9 8 9
17 17 17 17 17 17 15 11 11 11 10 9 9 9 12 12 11 9 7 7 7 6 6 6 6 6 5 5 4 3 4 5 6 6 8 8 8 7 5 9 9 8 7
17 17 17 15 18 17 12 11 9 9 9 9 10 10 13 11 12 10 8 8 8 7 7 6 8 7 7 4 3 3 4 5 6 7 8 8 9 9 8 8 7 7 9
16 18 19 19 19 14 12 11 11 10 11 10 10 13 14 13 13 12 9 10 9 9 9 10 9 9 7 4 3 4 5 8 9 9 9 9 11 10 10 8 7 6 6
19 20 21 21 19 16 13 12 10 11 11 11 10 12 14 14 14 12 13 11 11 9 11 11 10 7 7 7 4 2 3 5 10 11 9 10 12 9 10 10 9 9 8
20 22 21 21 22 20 19 12 10 8 7 9 11 11 13 16 15 15 15 13 12 11 10 12 11 12 8 8 11 4 2 5 2 5 10 10 11 10 9 10 12 12 11
21 18 21 21 22 20 21 16 17 14 13 12 12 11 12 16 16 16 16 15 14 10 12 10 10 11 11 10 5 10 9 6 4 6 6 8 9 10 11 9 10 12 10
15 17 19 21 21 21 20 20 16 17 13 11 11 14 15 14 17 17 16 15 14 10 12 13 13 13 11 11 10 7 10 10 9 8 8 10 5 8 9 9 9 6 4
14 15 16 19 21 22 21 23 23 21 18 13 14 12 11 11 11 15 15 14 14 13 14 13 14 15 13 13 11 11 10 7 7 8 8 10 11 6 4 2 7 6 10
Wind_Direction
158 135 143 135 128 121 116 113 109 106 104 102 102 101 101 102 94 85 86 90 84 88 87 87 79 81 79 77 76 74 72 70 64 69 70 68 69 65 68 63 44 56 46
148 150 153 142 136 125 121 117 110 109 105 106 105 98 102 97 89 90 89 86 84 86 98 87 85 83 83 83 80 76 75 75 72 67 50 84 75 71 57 44 38 62 61
145 149 160 146 134 124 126 122 118 117 111 112 106 96 99 97 99 96 99 97 88 92 99 92 88 87 87 82 80 72 68 59 47 35 56 40 70 64 62 69 57 54 49
145 152 150 137 129 130 135 130 125 118 116 110 103 105 101 103 101 102 103 99 94 94 92 91 94 95 90 84 79 70 58 48 40 346 59 40 68 71 65 63 55 51 47
146 148 127 137 135 141 141 136 128 125 120 112 108 109 105 101 102 101 104 101 95 99 98 96 98 94 91 85 78 70 55 37 37 41 62 61 79 72 64 58 54 55 50
146 150 135 144 148 146 141 140 131 123 114 124 110 107 104 100 101 107 109 105 96 93 99 103 99 93 87 82 77 67 53 32 346 48 61 71 73 69 64 62 60 56 55
157 151 155 152 150 152 150 147 138 132 131 115 120 115 107 112 112 117 117 107 105 107 107 108 105 100 94 85 76 66 57 43 47 63 67 71 68 65 71 67 64 62 64
157 161 154 156 150 152 153 152 141 135 136 135 126 124 121 119 120 120 122 118 116 108 105 103 105 104 94 85 76 66 52 354 78 72 63 71 64 71 75 70 65 65 62
156 167 165 172 159 153 138 139 139 138 135 135 134 129 121 117 119 122 127 126 127 116 109 104 103 108 114 102 88 76 58 8 72 75 47 70 70 67 72 69 65 68 66
163 171 170 173 175 166 156 135 135 135 137 135 121 120 115 120 112 100 115 123 120 115 114 120 122 113 125 111 94 79 73 31 69 82 57 68 73 70 64 61 75 70 70
172 183 172 174 177 174 170 154 145 143 136 128 126 112 155 148 152 168 74 121 134 136 132 131 123 113 118 115 104 95 281 58 65 76 43 20 72 70 62 70 70 73 69
182 185 186 184 184 181 174 170 171 157 169 169 166 168 166 161 160 154 134 134 128 123 126 126 121 132 207 146 142 183 93 63 50 47 75 10 73 70 76 71 71 73 68
187 184 195 190 188 190 181 182 180 180 174 177 176 176 173 170 169 180 160 170 169 192 172 176 170 183 139 151 147 159 138 89 40 53 81 30 350 100 90 81 65 64 70
195 194 192 190 194 196 192 198 190 189 185 183 186 183 178 182 183 182 187 183 192 195 185 197 183 159 173 177 190 174 176 182 195 40 73 41 345 185 113 92 75 75 80
206 200 198 195 197 197 198 199 200 199 196 192 188 191 192 190 191 188 189 193 197 194 205 195 190 195 199 203 208 215 209 211 151 89 47 63 47 87 99 91 237 230 158
209 203 198 202 202 196 199 201 201 201 197 195 197 196 202 203 196 197 198 203 204 210 208 216 205 209 215 222 228 239 232 185 171 151 121 108 100 105 146 235 274 259 238
208 201 202 200 210 207 205 199 202 204 203 200 201 201 199 201 204 203 204 206 210 208 222 222 217 228 230 219 241 218 200 183 185 192 184 204 177 176 176 197 219 236 241
212 208 203 198 202 213 210 206 202 204 209 208 205 203 205 206 206 206 208 209 205 211 220 226 225 230 238 236 233 214 197 196 206 198 206 210 214 222 188 195 203 219 226
215 211 207 201 201 209 215 214 214 209 210 211 209 212 210 213 210 215 215 217 210 216 220 226 231 240 235 234 241 221 195 231 227 229 246 235 233 243 234 189 203 212 236
216 216 211 206 211 204 209 213 215 216 217 216 213 212 211 214 214 215 223 221 216 220 223 221 229 223 241 248 209 219 239 246 233 238 240 239 239 235 235 231 209 215 225
221 217 214 209 209 205 204 204 209 211 213 216 217 217 216 215 215 217 222 222 217 222 224 224 224 231 228 203 182 229 246 245 239 236 234 240 236 233 234 231 227 231 212
217 216 215 215 207 204 206 208 208 208 220 217 215 216 218 215 215 217 221 221 217 221 225 225 220 225 240 188 200 231 256 221 235 236 235 240 242 234 233 232 231 229 232
217 216 214 214 212 206 208 202 207 218 216 216 220 216 216 215 213 214 219 220 218 219 225 222 221 222 232 211 216 210 221 238 344 197 232 238 236 235 232 228 226 225 221
220 216 217 214 214 213 205 204 204 205 209 218 218 219 217 212 214 214 219 220 221 218 225 225 221 224 226 236 197 229 245 265 255 283 217 239 244 246 239 232 235 233 224
225 216 216 217 213 214 209 210 209 217 221 222 222 224 219 214 218 216 218 219 222 222 226 225 219 223 225 236 230 230 230 240 240 251 269 271 205 231 234 237 242 220 186
235 225 222 219 218 212 210 211 213 216 220 217 218 221 222 221 218 222 222 224 224 224 224 226 228 227 225 231 240 234 234 224 221 234 248 256 262 249 181 187 228 191 192